Regional Weather Roundup
Issued by NWS Newport/Morehead, NC

Current Version | Previous Version | Text Only | Print | Product List | Glossary On
Versions: 1 2 3 4 5 6 7 8 9 10 11 12 13 14 15 16 17 18 19 20 21 22 23 24 25 26 27 28 29 30 31 32 33 34 35 36 37 38 39 40 41 42 43 44 45 46 47 48 49 50
000
ASUS42 KMHX 240425
RWRMHX
WEATHER ROUNDUP FOR EASTERN NORTH CAROLINA
NATIONAL WEATHER SERVICE NEWPORT/MOREHEAD CITY NC
1200 AM EDT FRI MAR 24 2017

NOTE: "FAIR" INDICATES FEW OR NO CLOUDS BELOW 12,000 FEET
WITH NO SIGNIFICANT WEATHER AND/OR OBSTRUCTIONS TO VISIBILITY

NCZ015>017-031-032-045>047-102-103-240500-
NORTH COAST

CITY           SKY/WX    TMP DP  RH WIND       PRES   REMARKS
EDENTON        CLEAR     37  31  79 SE3       30.61S
ELIZABETH CITY CLEAR     34  29  82 E6        30.60S
KITTY HAWK     NOT AVBL
MANTEO         CLEAR     33  28  81 E3        30.60F

$$

NCZ045>047-081-094-103-104-240500-
CENTRAL COAST

CITY           SKY/WX    TMP DP  RH WIND       PRES   REMARKS
FRISCO         CLEAR     41  32  70 NE6       30.58F

$$

NCZ095-097-098-100-101-240500-
SOUTHERN COAST

CITY           SKY/WX    TMP DP  RH WIND       PRES   REMARKS
BEAUFORT       CLEAR     40  32  73 NE7       30.58R
CEDAR ISLAND   NOT AVBL
JACKSONVILLE   CLEAR     40  33  76 NE6       30.58R
PINEY ISLAND   CLEAR    N/A N/A N/A E9        30.58S
WILMINGTON     CLEAR     38  33  82 N3        30.55S


$$

NCZ011>013-027>030-043-044-078>080-089-090>093-098-240500-
COASTAL PLAIN

CITY           SKY/WX    TMP DP  RH WIND       PRES   REMARKS
AHOSKIE          N/A     34  28  76 SE3       30.59S
CLINTON        CLEAR     41  33  72 E3        30.57S
ELIZABETHTOWN  CLEAR     40  34  77 E3        30.55S
GOLDSBORO      CLEAR     40  33  77 E5        30.56S
GREENVILLE     CLEAR     36  30  80 E3        30.57S
HAVELOCK       CLEAR     38  31  76 E5        30.59R
KENANSVILLE    CLEAR     37  30  75 E3        30.58R
KINSTON        CLEAR     40  32  75 E3        30.58S
NEW BERN       CLEAR     39  32  76 E5        30.59S
RICHLANDS      CLEAR     35  30  82 NE6       30.58R
ROCKY MOUNT    CLEAR     40  29  64 VRB3      30.57S
WASHINGTON     CLEAR     35  28  74 CALM      30.60R
WHITEVILLE     CLEAR     41  32  70 CALM      30.54S

$$

AMZ130-135-150-152-154-156-158-170-250-252-270-ANZ085-086-088-633-658-670-240500-
MARINE OBSERVATIONS

STATION/POSITION TIME  TEMP    WIND        PRES    WAVE   SWELL
                       AIR SEA DIR/SP/G            HT/PER HT/PER
                 (UTC) (F)     (DEG/KT/KT) (MB)    (FT/S) (FT/S)
CHESAPEAKE LIGHT NOT AVBL
64 E VA BEACH    0350   42 48   90/  4/  6 1036.5    4/ 8   3/ 8
DUCK             0400   40 48   90/  7/  9 1035.7
2 E DUCK         0400      47                N/A     3/ 6
OREGON INLET     0400      49   50/  6/  8 1036.0
13E OREGON INLT  NOT AVBL
HATTERAS CG      0400   42 52   30/  5/  8 1035.2
DIAMOND BUOY     0350   52 71   20/ 10/ 16 1035.1    8/11   8/11
CAPE LOOKOUT     0400   46      10/ 10/ 13 1034.7
BEAUFORT LAB     0400   41 52   20/  5/  8 1034.4
30 SE NEW RVR IN 0408   55      80/ 12/ 16 1034.2
30 SE NEW RVR IN 0413      69                N/A     4/11   2/11
27 SE WRIGHTSVLE 0408   56 62   90/ 12/ 16 1033.1
5 SE WRIGHTSVLE  0408   52 56   80/ 12/ 17 1034.2
225 S CAPE HAT   0350   62 72   50/ 16/ 19 1032.3    6/10   5/10
41 SE CHARLESTON 0350   64 71   80/ 17/ 23 1031.0    6/ 7   3/ 9

$$



USA.gov is the U.S. government's official web portal to all federal, state and local government web resources and services.